Location: Follega
(52.8850°N, 5.7362°E)
Time: 00:19:12
(UTC+00:00)

Terra - Pass Details

Date: 01 June 2020
Orbit: 701 x 703 km, 98.2° (Epoch: 11 July)

Event Time Altitude Azimuth Distance (km) Brightness Sun altitude
Exits shadow 20:45:47 - 143° (SE) 2,345 3.8 -6.4°
Reaches altitude 10° 20:46:14 10° 141° (SE) 2,169 3.7 -6.5°
Maximum altitude 20:50:48 50° 68° (ENE) 904 2.3 -6.9°
Drops below altitude 10° 20:55:25 10° 354° (N) 2,184 5.4 -7.3°
Sets 20:57:44 0° 349° (N) 3,107 6.5 -7.5°
